Torna al catalogo

THORAD DELTA 1 DEB

AttivoSSO
NORAD 8181·DEBRIS·🇺🇸 United States

Lanciato Nov 15, 1974 da Vandenberg Space Force Base

Loading…

Prossimi Passaggi (prossime 24 ore)

TLE

AggiornatoSource: Space-Track

Epoca: Sep 14, 2026, 13:02 UTC

1 08181U 74089AX  26257.54363640  .00000051  00000-0  69174-3 0  9995
2 08181 101.6965   0.6188 0068289 192.7873 236.3732 12.40357043345457

Traccia THORAD DELTA 1 DEB in tempo reale con AllMySat

Download on the App Store